Location: Pine Mountain Observatory
(43.7910°N, 120.9377°W)
Time: 19:52:43
(UTC-07:00)

Transit 4A - All Passes

Search period start: 25 May 2019 00:00
Search period end: 04 June 2019 00:00
Orbit: 862 x 983 km, 66.8° (Epoch: 25 May)

Date Brightness Start Highest point End Pass type
(mag) Time Alt. Az. Time Alt. Az. Time Alt. Az.
25 May - 00:01:46 10° NNW 00:08:09 62° NE 00:14:24 10° SE visible
25 May - 01:48:58 10° NW 01:54:03 26° WSW 01:59:04 10° SSW visible
25 May - 15:09:29 10° SSW 15:15:35 63° ESE 15:21:52 10° NE daylight
25 May - 16:57:03 10° WSW 17:02:26 29° NW 17:07:58 10° NNE daylight
25 May - 18:50:14 10° NNW 18:51:11 10° NNW 18:52:08 10° N daylight
25 May - 22:25:22 10° NNW 22:30:13 22° NE 22:35:02 10° E visible
26 May - 00:11:06 10° NNW 00:17:34 86° ENE 00:23:52 10° SSE visible
26 May - 01:59:11 10° WNW 02:03:05 17° WSW 02:06:57 10° SW visible
26 May - 13:36:02 10° SE 13:39:27 15° ESE 13:42:55 10° ENE daylight
26 May - 15:18:40 10° SSW 15:24:53 89° SE 15:31:18 10° NNE daylight
26 May - 17:07:18 10° W 17:12:10 23° NW 17:17:05 10° NNE daylight
26 May - 20:50:44 10° NNE 20:51:09 10° NNE 20:51:34 10° NNE daylight
26 May - 22:34:29 10° NNW 22:39:58 28° NE 22:45:21 10° E visible
27 May - 00:20:31 10° NW 00:26:53 68° WSW 00:33:07 10° SSE visible
27 May - 02:10:49 10° W 02:12:03 11° W 02:13:17 10° WSW visible
27 May - 13:43:44 10° SSE 13:48:28 23° ESE 13:53:18 10° NE daylight
27 May - 15:28:07 10° SW 15:34:17 66° NW 15:40:39 10° NNE daylight
27 May - 17:17:49 10° WNW 17:21:57 18° NNW 17:26:10 10° N daylight
27 May - 20:58:45 10° N 21:01:11 12° NNE 21:03:35 10° NE daylight
27 May - 22:43:40 10° NNW 22:49:36 37° NE 22:55:25 10° ESE visible
28 May - 00:30:03 10° NW 00:36:08 47° WSW 00:42:05 10° S visible
28 May - 13:52:05 10° S 13:57:33 34° ESE 14:03:11 10° NE daylight
28 May - 15:37:46 10° SW 15:43:46 47° NW 15:49:56 10° NNE daylight
28 May - 17:28:35 10° WNW 17:31:52 14° NNW 17:35:09 10° N daylight
28 May - 21:07:36 10° N 21:11:08 15° NNE 21:14:38 10° ENE visible
28 May - 22:52:54 10° NNW 22:59:09 50° NE 23:05:16 10° SE visible
29 May - 00:39:43 10° NW 00:45:18 32° WSW 00:50:46 10° S visible
29 May - 14:00:48 10° S 14:06:43 50° ESE 14:12:51 10° NE daylight
29 May - 15:47:39 10° WSW 15:53:19 35° NW 15:59:10 10° NNE daylight
29 May - 17:39:43 10° NW 17:41:50 12° NNW 17:43:57 10° N daylight
29 May - 21:16:38 10° N 21:21:01 19° NE 21:25:21 10° ENE visible
29 May - 23:02:11 10° NNW 23:08:37 70° ENE 23:14:54 10° SE visible
30 May - 00:49:40 10° WNW 00:54:22 22° WSW 00:59:01 10° SSW visible
30 May - 12:28:55 10° ESE 12:30:47 11° E 12:32:39 10° E daylight
30 May - 14:09:49 10° SSW 14:15:59 72° ESE 14:22:21 10° NE daylight
30 May - 15:57:46 10° W 16:03:00 27° NW 16:08:20 10° NNE daylight
30 May - 21:25:43 10° NNW 21:30:48 24° NE 21:35:50 10° E visible
30 May - 23:11:33 10° NNW 23:18:00 85° WSW 23:24:17 10° SSE visible
31 May - 01:00:09 10° WNW 01:03:23 14° W 01:06:35 10° SW visible
31 May - 12:35:44 10° SE 12:39:45 18° ESE 12:43:50 10° ENE daylight
31 May - 14:19:06 10° SW 14:25:19 81° WNW 14:31:45 10° NNE daylight
31 May - 16:08:07 10° W 16:12:45 21° NW 16:17:26 10° N daylight
31 May - 19:50:23 10° N 19:51:50 11° NNE 19:53:17 10° NNE daylight
31 May - 21:34:51 10° NNW 21:40:31 31° NE 21:46:03 10° ESE visible
31 May - 23:21:00 10° NW 23:27:18 60° WSW 23:33:26 10° SSE visible
01 Jun - 12:43:43 10° SSE 12:48:47 27° ESE 12:53:58 10° NE daylight
01 Jun - 14:28:36 10° SW 14:34:45 58° NW 14:41:04 10° NNE daylight
01 Jun - 16:18:42 10° WNW 16:22:34 16° NNW 16:26:29 10° N daylight
01 Jun - 19:58:59 10° N 20:01:50 13° NNE 20:04:41 10° NE daylight
01 Jun - 21:44:04 10° NNW 21:50:07 41° NE 21:56:03 10° ESE visible
01 Jun - 23:30:35 10° NW 23:36:30 41° WSW 23:42:18 10° S visible
02 Jun - 12:52:13 10° S 12:57:55 39° ESE 13:03:45 10° NE daylight
02 Jun - 14:38:21 10° WSW 14:44:16 42° NW 14:50:20 10° NNE daylight
02 Jun - 16:29:35 10° NW 16:32:30 13° NNW 16:35:26 10° N daylight
02 Jun - 20:07:55 10° N 20:11:46 16° NNE 20:15:35 10° ENE daylight
02 Jun - 21:53:18 10° NNW 21:59:38 57° NE 22:05:49 10° SE visible
02 Jun - 23:40:20 10° NW 23:45:38 28° WSW 23:50:50 10° SSW visible
03 Jun - 13:01:03 10° SSW 13:07:07 58° ESE 13:13:21 10° NE daylight
03 Jun - 14:48:19 10° WSW 14:53:52 32° NW 14:59:32 10° NNE daylight
03 Jun - 16:40:56 10° NW 16:42:30 11° NNW 16:44:05 10° N daylight
03 Jun - 20:16:57 10° N 20:21:36 20° NE 20:26:13 10° E daylight
03 Jun - 22:02:37 10° NNW 22:09:04 79° ENE 22:15:21 10° SE visible
03 Jun - 23:50:26 10° WNW 23:54:41 19° WSW 23:58:53 10° SW visible
